Total_Precipitation_Accumulation
0.09 0.07 0.08 0.09 0.08 0.08 0.07 0.08 0.08 0.07 0.04 0.04 0.05 0.04 0.02 0.00 0.00 0.00 0.00 0.00 0.00 0.00 0.00 0.00 0.00 0.01 0.01 0.01 0.00 0.00 0.00 0.00 0.00 0.02 0.01 0.00 0.00 0.00 0.00 0.00 0.00 0.00 0.00 0.00 0.00 0.00 0.00
0.05 0.05 0.04 0.05 0.06 0.07 0.08 0.09 0.10 0.10 0.08 0.05 0.05 0.05 0.04 0.02 0.00 0.00 0.00 0.00 0.00 0.00 0.01 0.00 0.00 0.01 0.01 0.00 0.00 0.00 0.00 0.00 0.00 0.00 0.01 0.01 0.01 0.00 0.00 0.00 0.01 0.00 0.00 0.00 0.00 0.00 0.00
0.03 0.03 0.04 0.07 0.08 0.09 0.10 0.11 0.12 0.11 0.11 0.10 0.07 0.06 0.04 0.03 0.00 0.00 0.00 0.00 0.01 0.01 0.00 0.00 0.01 0.00 0.00 0.00 0.00 0.00 0.00 0.00 0.00 0.00 0.00 0.01 0.01 0.04 0.04 0.01 0.00 0.01 0.04 0.01 0.00 0.00 0.00
0.03 0.04 0.05 0.06 0.08 0.08 0.08 0.09 0.08 0.09 0.12 0.12 0.10 0.09 0.08 0.07 0.02 0.00 0.00 0.01 0.03 0.02 0.02 0.01 0.02 0.01 0.01 0.00 0.00 0.00 0.00 0.00 0.00 0.00 0.00 0.00 0.01 0.04 0.04 0.02 0.00 0.02 0.03 0.01 0.00 0.00 0.00
0.04 0.04 0.05 0.05 0.05 0.05 0.05 0.06 0.06 0.07 0.10 0.13 0.13 0.09 0.09 0.08 0.04 0.01 0.01 0.01 0.01 0.00 0.03 0.04 0.02 0.01 0.00 0.00 0.00 0.00 0.00 0.00 0.00 0.00 0.00 0.00 0.00 0.00 0.01 0.03 0.02 0.02 0.01 0.01 0.00 0.00 0.00
0.02 0.03 0.03 0.03 0.03 0.03 0.04 0.06 0.08 0.09 0.11 0.12 0.12 0.12 0.10 0.11 0.08 0.02 0.03 0.05 0.02 0.03 0.04 0.02 0.02 0.03 0.00 0.00 0.00 0.00 0.00 0.00 0.00 0.00 0.00 0.00 0.00 0.00 0.00 0.02 0.02 0.01 0.02 0.01 0.00 0.00 0.01
0.00 0.02 0.04 0.04 0.05 0.07 0.09 0.09 0.09 0.09 0.10 0.13 0.16 0.16 0.13 0.13 0.10 0.04 0.02 0.01 0.00 0.00 0.02 0.00 0.00 0.00 0.00 0.00 0.00 0.00 0.00 0.00 0.00 0.00 0.00 0.00 0.01 0.00 0.00 0.00 0.00 0.00 0.00 0.01 0.00 0.01 0.04
0.00 0.01 0.03 0.06 0.11 0.11 0.10 0.10 0.10 0.09 0.09 0.12 0.15 0.18 0.17 0.13 0.10 0.06 0.01 0.00 0.00 0.00 0.00 0.00 0.00 0.00 0.00 0.00 0.00 0.00 0.00 0.00 0.00 0.00 0.00 0.00 0.00 0.00 0.00 0.00 0.00 0.00 0.01 0.01 0.01 0.01 0.07
0.00 0.01 0.05 0.13 0.13 0.11 0.12 0.15 0.16 0.18 0.19 0.16 0.17 0.19 0.23 0.19 0.20 0.15 0.01 0.00 0.00 0.00 0.01 0.01 0.00 0.00 0.00 0.00 0.00 0.00 0.00 0.00 0.00 0.00 0.00 0.00 0.00 0.00 0.00 0.00 0.00 0.00 0.00 0.00 0.01 0.04 0.06
0.01 0.02 0.03 0.04 0.11 0.16 0.19 0.24 0.30 0.32 0.33 0.36 0.30 0.30 0.27 0.37 0.60 0.08 0.02 0.00 0.00 0.00 0.01 0.00 0.00 0.00 0.00 0.01 0.02 0.00 0.00 0.00 0.01 0.00 0.01 0.02 0.00 0.00 0.00 0.00 0.00 0.00 0.00 0.00 0.01 0.06 0.03
0.01 0.02 0.03 0.03 0.05 0.09 0.16 0.25 0.31 0.40 0.48 0.47 0.48 0.37 0.38 0.56 0.47 0.08 0.00 0.00 0.00 0.00 0.01 0.00 0.00 0.00 0.01 0.01 0.01 0.00 0.00 0.04 0.02 0.00 0.03 0.04 0.00 0.00 0.00 0.00 0.00 0.00 0.00 0.00 0.04 0.29 0.24
0.02 0.04 0.05 0.06 0.09 0.14 0.17 0.20 0.26 0.31 0.41 0.50 0.62 0.61 0.75 0.64 0.38 0.06 0.01 0.00 0.00 0.00 0.01 0.00 0.00 0.01 0.03 0.02 0.01 0.01 0.01 0.07 0.08 0.17 0.16 0.02 0.00 0.01 0.00 0.00 0.00 0.01 0.02 0.03 0.14 0.25 0.52
0.03 0.06 0.09 0.09 0.11 0.15 0.28 0.31 0.29 0.33 0.43 0.52 0.71 0.86 0.84 0.68 0.35 0.07 0.05 0.02 0.02 0.01 0.00 0.00 0.00 0.00 0.01 0.02 0.02 0.04 0.10 0.15 0.30 0.31 0.31 0.16 0.03 0.02 0.04 0.02 0.01 0.02 0.08 0.19 0.28 0.53 0.34
0.05 0.08 0.10 0.10 0.16 0.28 0.37 0.37 0.49 0.58 0.50 0.48 0.77 0.84 0.85 0.69 0.40 0.05 0.01 0.01 0.01 0.00 0.00 0.00 0.00 0.01 0.01 0.01 0.04 0.03 0.20 0.13 0.10 0.20 0.26 0.15 0.07 0.02 0.01 0.01 0.03 0.02 0.03 0.17 0.16 0.17 0.15
0.05 0.09 0.14 0.14 0.25 0.27 0.31 0.35 0.35 0.46 0.58 0.61 0.98 1.18 0.93 0.84 0.60 0.12 0.00 0.02 0.00 0.00 0.00 0.00 0.03 0.08 0.04 0.02 0.05 0.06 0.09 0.09 0.02 0.03 0.12 0.12 0.07 0.03 0.00 0.00 0.09 0.17 0.17 0.12 0.35 0.13 0.20
0.06 0.10 0.13 0.12 0.14 0.27 0.33 0.34 0.45 0.71 0.83 0.85 1.25 1.59 0.93 0.66 0.68 0.21 0.03 0.01 0.00 0.01 0.01 0.03 0.07 0.05 0.00 0.01 0.03 0.03 0.03 0.00 0.00 0.00 0.00 0.03 0.17 0.10 0.07 0.09 0.09 0.17 0.09 0.29 0.82 0.53 0.14
0.07 0.10 0.10 0.15 0.20 0.37 0.47 0.50 0.63 0.82 0.85 1.51 0.98 1.48 0.86 0.78 0.89 0.49 0.11 0.01 0.00 0.00 0.02 0.05 0.05 0.04 0.00 0.00 0.00 0.00 0.00 0.00 0.00 0.00 0.00 0.01 0.07 0.12 0.28 0.13 0.07 0.22 0.28 0.22 0.37 0.35 0.25
0.07 0.09 0.09 0.18 0.27 0.42 0.63 0.62 0.67 0.98 1.22 1.83 1.46 0.82 0.85 0.93 1.07 0.45 0.04 0.00 0.00 0.01 0.03 0.10 0.10 0.04 0.00 0.00 0.00 0.00 0.00 0.00 0.00 0.00 0.01 0.01 0.14 0.20 0.16 0.06 0.06 0.10 0.17 0.14 0.31 0.39 0.20
0.07 0.08 0.07 0.16 0.29 0.40 0.58 0.53 0.52 0.96 1.38 1.62 1.41 0.87 1.01 0.52 0.37 0.14 0.01 0.01 0.01 0.03 0.06 0.12 0.08 0.04 0.01 0.00 0.00 0.00 0.00 0.00 0.00 0.00 0.00 0.05 0.26 0.35 0.29 0.29 0.31 0.25 0.21 0.29 0.23 0.39 0.35
0.07 0.06 0.06 0.10 0.23 0.33 0.42 0.36 0.45 0.98 1.18 1.52 1.18 1.22 1.72 1.24 0.20 0.02 0.00 0.01 0.02 0.03 0.04 0.11 0.13 0.08 0.04 0.02 0.00 0.00 0.00 0.00 0.00 0.00 0.01 0.20 0.40 0.58 0.57 0.50 0.59 0.30 0.20 0.37 0.44 0.38 0.22
0.07 0.05 0.07 0.10 0.12 0.20 0.26 0.31 0.71 1.24 1.31 1.27 0.86 0.51 0.48 0.63 0.20 0.01 0.02 0.03 0.02 0.07 0.09 0.14 0.11 0.08 0.05 0.02 0.00 0.00 0.00 0.00 0.00 0.02 0.13 0.42 0.78 0.90 0.41 0.29 0.43 0.36 0.16 0.28 0.54 0.32 0.16
0.07 0.05 0.06 0.08 0.06 0.12 0.17 0.24 0.60 1.29 1.44 0.90 0.64 0.24 0.02 0.02 0.01 0.00 0.02 0.03 0.03 0.09 0.14 0.13 0.07 0.04 0.05 0.03 0.00 0.00 0.00 0.00 0.00 0.02 0.11 0.31 0.67 0.70 0.40 0.26 0.20 0.15 0.09 0.15 0.44 0.33 0.20
0.06 0.06 0.07 0.06 0.04 0.08 0.10 0.27 0.57 1.28 1.57 1.12 0.63 0.22 0.02 0.02 0.01 0.01 0.00 0.00 0.01 0.09 0.07 0.04 0.05 0.07 0.04 0.03 0.02 0.01 0.00 0.02 0.01 0.01 0.09 0.25 0.41 0.62 0.58 0.32 0.19 0.18 0.04 0.14 0.36 0.31 0.15
0.07 0.07 0.08 0.04 0.03 0.05 0.07 0.31 0.61 1.12 1.36 1.11 0.60 0.34 0.14 0.07 0.03 0.01 0.01 0.01 0.01 0.06 0.07 0.05 0.02 0.05 0.02 0.02 0.04 0.05 0.02 0.01 0.01 0.00 0.02 0.14 0.26 0.42 0.73 0.62 0.46 0.24 0.08 0.14 0.16 0.16 0.10
0.07 0.08 0.07 0.03 0.02 0.04 0.06 0.31 0.47 0.60 0.63 0.67 0.45 0.28 0.13 0.06 0.02 0.03 0.03 0.02 0.03 0.04 0.08 0.10 0.05 0.01 0.04 0.06 0.15 0.17 0.17 0.04 0.00 0.00 0.00 0.02 0.13 0.12 0.15 0.09 0.05 0.04 0.10 0.08 0.08 0.10 0.03
0.07 0.07 0.05 0.01 0.02 0.03 0.05 0.20 0.33 0.45 0.49 0.52 0.33 0.27 0.09 0.06 0.03 0.02 0.03 0.02 0.07 0.13 0.12 0.11 0.09 0.06 0.12 0.19 0.29 0.16 0.07 0.03 0.00 0.00 0.00 0.00 0.00 0.02 0.01 0.01 0.00 0.00 0.01 0.02 0.02 0.01 0.00
0.07 0.06 0.03 0.01 0.02 0.02 0.03 0.10 0.32 0.32 0.38 0.41 0.37 0.26 0.09 0.05 0.01 0.01 0.02 0.01 0.04 0.13 0.17 0.19 0.15 0.18 0.19 0.29 0.26 0.11 0.01 0.00 0.00 0.00 0.00 0.00 0.00 0.00 0.00 0.00 0.00 0.00 0.00 0.00 0.00 0.00 0.00
0.08 0.05 0.02 0.01 0.01 0.02 0.03 0.08 0.29 0.25 0.33 0.40 0.30 0.25 0.07 0.03 0.01 0.01 0.00 0.00 0.06 0.12 0.20 0.23 0.28 0.29 0.24 0.28 0.22 0.09 0.00 0.00 0.00 0.00 0.00 0.00 0.01 0.01 0.00 0.00 0.00 0.00 0.00 0.00 0.00 0.00 0.00
0.06 0.03 0.03 0.02 0.01 0.02 0.03 0.05 0.27 0.24 0.25 0.36 0.24 0.24 0.10 0.03 0.00 0.00 0.00 0.00 0.03 0.09 0.21 0.24 0.26 0.20 0.22 0.16 0.04 0.03 0.00 0.00 0.00 0.00 0.00 0.00 0.00 0.00 0.00 0.00 0.00 0.00 0.00 0.00 0.00 0.00 0.00